| time (UTC) | temp F | wind direction | speed MPH | gust MPH | rain 1hr in | rain 24hr in | rain mn in | humidity % | barometer mb |
| 20260903044030 | 74 | 136 | 5.0 | 12.0 | 0.00 | 0.00 | 0.00 | 66 | 1002.7 |
| 20260903043532 | 75 | 94 | 6.0 | 12.0 | 0.00 | 0.00 | 0.00 | 66 | 1002.7 |
| 20260903043107 | 75 | 125 | 5.0 | 11.0 | 0.00 | 0.00 | 0.00 | 66 | 1003.0 |
| 20260903042027 | 75 | 144 | 3.0 | 12.0 | 0.00 | 0.00 | 0.00 | 65 | 1002.8 |
| 20260903041527 | 76 | 105 | 5.0 | 12.0 | 0.00 | 0.00 | 0.00 | 65 | 1002.9 |
| 20260903041025 | 76 | 85 | 5.0 | 13.0 | 0.00 | 0.00 | 0.00 | 64 | 1003.0 |
| 20260903040525 | 76 | 127 | 6.0 | 13.0 | 0.00 | 0.00 | 0.00 | 64 | 1002.9 |
| 20260903040026 | 76 | 114 | 7.0 | 17.0 | 0.00 | 0.00 | 0.00 | 64 | 1002.9 |
| 20260903035525 | 76 | 140 | 6.0 | 17.0 | 0.00 | 0.00 | 0.00 | 63 | 1003.0 |
| 20260903035027 | 76 | 121 | 10.0 | 16.0 | 0.00 | 0.00 | 0.00 | 63 | 1002.9 |
| 20260903034536 | 76 | 118 | 7.0 | 18.0 | 0.00 | 0.00 | 0.00 | 63 | 1002.7 |
| 20260903034025 | 77 | 116 | 9.0 | 17.0 | 0.00 | 0.00 | 0.00 | 63 | 1002.9 |
| 20260903033524 | 77 | 92 | 10.0 | 17.0 | 0.00 | 0.00 | 0.00 | 63 | 1002.8 |
| 20260903033026 | 77 | 94 | 7.0 | 14.0 | 0.00 | 0.00 | 0.00 | 63 | 1002.9 |
| 20260903032625 | 77 | 113 | 6.0 | 14.0 | 0.00 | 0.00 | 0.00 | 63 | 1002.9 |
| 20260903032026 | 77 | 138 | 6.0 | 14.0 | 0.00 | 0.00 | 0.00 | 63 | 1002.8 |
| 20260903031523 | 77 | 111 | 7.0 | 15.0 | 0.00 | 0.00 | 0.00 | 63 | 1002.9 |
| 20260903031025 | 77 | 98 | 6.0 | 17.0 | 0.00 | 0.00 | 0.00 | 63 | 1002.8 |
| 20260903030523 | 77 | 124 | 11.0 | 16.0 | 0.00 | 0.00 | 0.00 | 63 | 1002.8 |
| 20260903030023 | 77 | 114 | 7.0 | 18.0 | 0.00 | 0.00 | 0.00 | 63 | 1002.7 |
| 20260903025524 | 78 | 134 | 10.0 | 16.0 | 0.00 | 0.00 | 0.00 | 63 | 1002.8 |
| 20260903025022 | 78 | 148 | 10.0 | 20.0 | 0.00 | 0.00 | 0.00 | 63 | 1003.0 |
| 20260903024525 | 78 | 113 | 9.0 | 20.0 | 0.00 | 0.00 | 0.00 | 62 | 1002.8 |
| 20260903024022 | 78 | 126 | 9.0 | 18.0 | 0.00 | 0.00 | 0.00 | 62 | 1002.7 |
| 20260903023521 | 78 | 152 | 10.0 | 18.0 | 0.00 | 0.00 | 0.00 | 62 | 1002.8 |
| 20260903023021 | 78 | 126 | 7.0 | 16.0 | 0.00 | 0.00 | 0.00 | 62 | 1002.7 |
| 20260903022621 | 79 | 88 | 7.0 | 16.0 | 0.00 | 0.00 | 0.00 | 61 | 1002.8 |
| 20260903022022 | 79 | 175 | 7.0 | 16.0 | 0.00 | 0.00 | 0.00 | 61 | 1002.9 |
| 20260903021522 | 79 | 142 | 7.0 | 16.0 | 0.00 | 0.00 | 0.00 | 61 | 1002.9 |
| 20260903021021 | 79 | 91 | 6.0 | 16.0 | 0.00 | 0.00 | 0.00 | 60 | 1002.7 |
| 20260903020521 | 79 | 152 | 7.0 | 17.0 | 0.00 | 0.00 | 0.00 | 60 | 1002.7 |
| 20260903020024 | 79 | 130 | 4.0 | 15.0 | 0.00 | 0.00 | 0.00 | 59 | 1002.8 |
| 20260903015524 | 80 | 119 | 8.0 | 15.0 | 0.00 | 0.00 | 0.00 | 59 | 1002.7 |
| 20260903015021 | 80 | 135 | 8.0 | 13.0 | 0.00 | 0.00 | 0.00 | 59 | 1002.8 |
| 20260903014523 | 80 | 137 | 7.0 | 17.0 | 0.00 | 0.00 | 0.00 | 58 | 1002.7 |
| 20260903014020 | 80 | 119 | 9.0 | 17.0 | 0.00 | 0.00 | 0.00 | 58 | 1002.6 |
| 20260903013523 | 81 | 105 | 8.0 | 14.0 | 0.00 | 0.00 | 0.00 | 57 | 1002.6 |
| 20260903013022 | 81 | 126 | 7.0 | 14.0 | 0.00 | 0.00 | 0.00 | 57 | 1002.5 |
| 20260903012620 | 81 | 108 | 6.0 | 15.0 | 0.00 | 0.00 | 0.00 | 56 | 1002.6 |
| 20260903012020 | 82 | 116 | 7.0 | 15.0 | 0.00 | 0.00 | 0.00 | 56 | 1002.6 |
| 20260903011523 | 82 | 120 | 10.0 | 16.0 | 0.00 | 0.00 | 0.00 | 55 | 1002.7 |
| 20260903011019 | 82 | 126 | 9.0 | 16.0 | 0.00 | 0.00 | 0.00 | 54 | 1002.6 |
| 20260903010523 | 83 | 114 | 7.0 | 15.0 | 0.00 | 0.00 | 0.00 | 53 | 1002.6 |
| 20260903010020 | 83 | 107 | 8.0 | 17.0 | 0.00 | 0.00 | 0.00 | 51 | 1002.7 |
| 20260903005520 | 84 | 123 | 10.0 | 17.0 | 0.00 | 0.00 | 0.00 | 49 | 1002.6 |
| 20260903005020 | 84 | 130 | 11.0 | 17.0 | 0.00 | 0.00 | 0.00 | 49 | 1002.8 |
| 20260903004519 | 84 | 132 | 11.0 | 19.0 | 0.00 | 0.00 | 0.00 | 49 | 1002.7 |
| 20260903004019 | 84 | 128 | 14.0 | 19.0 | 0.00 | 0.00 | 0.00 | 50 | 1002.7 |
| 20260903003520 | 84 | 130 | 14.0 | 19.0 | 0.00 | 0.00 | 0.00 | 50 | 1002.5 |
| 20260903003022 | 84 | 138 | 8.0 | 18.0 | 0.00 | 0.00 | 0.00 | 50 | 1002.5 |
| 20260903002619 | 85 | 92 | 8.0 | 17.0 | 0.00 | 0.00 | 0.00 | 49 | 1002.4 |
| 20260903002015 | 85 | 126 | 9.0 | 17.0 | 0.00 | 0.00 | 0.00 | 48 | 1002.5 |
| 20260903001517 | 85 | 114 | 12.0 | 17.0 | 0.00 | 0.00 | 0.00 | 47 | 1002.5 |
| 20260903001015 | 85 | 134 | 10.0 | 17.0 | 0.00 | 0.00 | 0.00 | 47 | 1002.7 |
| 20260903000515 | 85 | 120 | 11.0 | 17.0 | 0.00 | 0.00 | 0.00 | 47 | 1002.8 |
| 20260903000014 | 86 | 138 | 11.0 | 17.0 | 0.00 | 0.00 | 0.00 | 47 | 1002.6 |
| 20260902235514 | 85 | 144 | 8.0 | 17.0 | 0.00 | 0.00 | 0.00 | 48 | 1002.8 |
| 20260902235018 | 85 | 140 | 11.0 | 18.0 | 0.00 | 0.00 | 0.00 | 48 | 1002.7 |
| 20260902234521 | 85 | 128 | 9.0 | 18.0 | 0.00 | 0.00 | 0.00 | 49 | 1002.7 |
| 20260902234014 | 84 | 127 | 10.0 | 18.0 | 0.00 | 0.00 | 0.00 | 48 | 1002.6 |
| 20260902233513 | 84 | 136 | 9.0 | 18.0 | 0.00 | 0.00 | 0.00 | 48 | 1002.7 |
| 20260902233012 | 84 | 134 | 13.0 | 18.0 | 0.00 | 0.00 | 0.00 | 48 | 1002.7 |
| 20260902232615 | 85 | 127 | 9.0 | 16.0 | 0.00 | 0.00 | 0.00 | 48 | 1002.7 |
| 20260902232013 | 85 | 165 | 9.0 | 16.0 | 0.00 | 0.00 | 0.00 | 48 | 1002.8 |
| 20260902231514 | 85 | 142 | 11.0 | 20.0 | 0.00 | 0.00 | 0.00 | 47 | 1002.8 |
| 20260902231013 | 85 | 104 | 11.0 | 23.0 | 0.00 | 0.00 | 0.00 | 47 | 1002.9 |
| 20260902230511 | 86 | 146 | 15.0 | 23.0 | 0.00 | 0.00 | 0.00 | 45 | 1002.9 |
| 20260902230012 | 87 | 140 | 13.0 | 20.0 | 0.00 | 0.00 | 0.00 | 45 | 1002.8 |
| 20260902225512 | 87 | 155 | 13.0 | 20.0 | 0.00 | 0.00 | 0.00 | 45 | 1002.9 |
| 20260902225012 | 87 | 140 | 13.0 | 19.0 | 0.00 | 0.00 | 0.00 | 45 | 1002.9 |
| 20260902224511 | 87 | 129 | 12.0 | 24.0 | 0.00 | 0.00 | 0.00 | 45 | 1003.0 |
| 20260902224011 | 87 | 149 | 12.0 | 24.0 | 0.00 | 0.00 | 0.00 | 45 | 1002.9 |
| 20260902223514 | 87 | 124 | 11.0 | 18.0 | 0.00 | 0.00 | 0.00 | 44 | 1002.8 |
| 20260902223021 | 87 | 127 | 12.0 | 21.0 | 0.00 | 0.00 | 0.00 | 44 | 1002.8 |
| 20260902222612 | 87 | 172 | 12.0 | 17.0 | 0.00 | 0.00 | 0.00 | 43 | 1003.0 |
| 20260902222037 | 87 | 176 | 12.0 | 17.0 | 0.00 | 0.00 | 0.00 | 43 | 1003.0 |
| 20260902221530 | 88 | 140 | 10.0 | 19.0 | 0.00 | 0.00 | 0.00 | 43 | 1002.9 |
| 20260902221029 | 87 | 115 | 10.0 | 19.0 | 0.00 | 0.00 | 0.00 | 44 | 1003.0 |
| 20260902220532 | 87 | 153 | 12.0 | 21.0 | 0.00 | 0.00 | 0.00 | 44 | 1003.0 |
| 20260902220029 | 87 | 138 | 12.0 | 21.0 | 0.00 | 0.00 | 0.00 | 43 | 1003.1 |
| 20260902215530 | 87 | 165 | 11.0 | 18.0 | 0.00 | 0.00 | 0.00 | 45 | 1003.0 |
| 20260902215028 | 87 | 146 | 15.0 | 18.0 | 0.00 | 0.00 | 0.00 | 44 | 1003.1 |
| 20260902214527 | 87 | 143 | 11.0 | 19.0 | 0.00 | 0.00 | 0.00 | 44 | 1003.4 |
| 20260902214033 | 88 | 138 | 12.0 | 18.0 | 0.00 | 0.00 | 0.00 | 44 | 1003.3 |
| 20260902213525 | 87 | 126 | 10.0 | 21.0 | 0.00 | 0.00 | 0.00 | 45 | 1003.4 |
| 20260902213029 | 87 | 136 | 12.0 | 21.0 | 0.00 | 0.00 | 0.00 | 46 | 1003.5 |
| 20260902212524 | 87 | 134 | 11.0 | 22.0 | 0.00 | 0.00 | 0.00 | 46 | 1003.6 |
| 20260902212006 | 87 | 145 | 10.0 | 22.0 | 0.00 | 0.00 | 0.00 | 45 | 1003.7 |
| 20260902211505 | 87 | 140 | 13.0 | 19.0 | 0.00 | 0.00 | 0.00 | 45 | 1003.8 |
| 20260902211007 | 86 | 169 | 13.0 | 19.0 | 0.00 | 0.00 | 0.00 | 46 | 1003.7 |
| 20260902210503 | 87 | 140 | 13.0 | 21.0 | 0.00 | 0.00 | 0.00 | 46 | 1003.9 |
| 20260902210003 | 87 | 146 | 11.0 | 21.0 | 0.00 | 0.00 | 0.00 | 45 | 1003.8 |
| 20260902205504 | 87 | 131 | 11.0 | 19.0 | 0.00 | 0.00 | 0.00 | 46 | 1003.8 |
| 20260902205002 | 87 | 146 | 10.0 | 21.0 | 0.00 | 0.00 | 0.00 | 47 | 1004.0 |
| 20260902204600 | 86 | 113 | 12.0 | 21.0 | 0.00 | 0.00 | 0.00 | 46 | 1004.0 |
| 20260902204058 | 86 | 146 | 10.0 | 21.0 | 0.00 | 0.00 | 0.00 | 46 | 1004.2 |
| 20260902203601 | 86 | 117 | 16.0 | 21.0 | 0.00 | 0.00 | 0.00 | 47 | 1004.3 |
| 20260902203105 | 86 | 150 | 10.0 | 23.0 | 0.00 | 0.00 | 0.00 | 48 | 1004.3 |
| 20260902202556 | 86 | 138 | 13.0 | 22.0 | 0.00 | 0.00 | 0.00 | 48 | 1004.6 |
| 20260902201607 | 86 | 146 | 13.0 | 21.0 | 0.00 | 0.00 | 0.00 | 47 | 1004.6 |
| 20260902201103 | 86 | 137 | 9.0 | 21.0 | 0.00 | 0.00 | 0.00 | 48 | 1004.5 |
| 20260902200559 | 85 | 94 | 14.0 | 21.0 | 0.00 | 0.00 | 0.00 | 48 | 1004.7 |
| 20260902200133 | 85 | 132 | 13.0 | 21.0 | 0.00 | 0.00 | 0.00 | 49 | 1004.8 |
| 20260902195557 | 85 | 140 | 13.0 | 21.0 | 0.00 | 0.00 | 0.00 | 49 | 1004.7 |
| 20260902195055 | 85 | 170 | 11.0 | 21.0 | 0.00 | 0.00 | 0.00 | 49 | 1004.9 |
| 20260902194555 | 85 | 136 | 11.0 | 23.0 | 0.00 | 0.00 | 0.00 | 49 | 1004.9 |
| 20260902194056 | 85 | 155 | 13.0 | 24.0 | 0.00 | 0.00 | 0.00 | 50 | 1005.0 |
| 20260902193552 | 84 | 136 | 10.0 | 21.0 | 0.00 | 0.00 | 0.00 | 50 | 1005.0 |
| 20260902193051 | 85 | 149 | 11.0 | 20.0 | 0.00 | 0.00 | 0.00 | 50 | 1005.1 |
| 20260902192549 | 84 | 150 | 11.0 | 22.0 | 0.00 | 0.00 | 0.00 | 51 | 1005.1 |
| 20260902192019 | 84 | 109 | 12.0 | 22.0 | 0.00 | 0.00 | 0.00 | 51 | 1005.1 |
| 20260902191517 | 84 | 148 | 14.0 | 26.0 | 0.00 | 0.00 | 0.00 | 51 | 1005.4 |
| 20260902191015 | 84 | 138 | 16.0 | 26.0 | 0.00 | 0.00 | 0.00 | 52 | 1005.4 |
| 20260902190514 | 84 | 107 | 13.0 | 25.0 | 0.00 | 0.00 | 0.00 | 51 | 1005.6 |
| 20260902190024 | 83 | 167 | 15.0 | 25.0 | 0.00 | 0.00 | 0.00 | 52 | 1005.6 |
| 20260902185513 | 84 | 140 | 16.0 | 28.0 | 0.00 | 0.00 | 0.00 | 51 | 1005.7 |
| 20260902185013 | 84 | 150 | 16.0 | 26.0 | 0.00 | 0.00 | 0.00 | 52 | 1005.6 |
| 20260902184510 | 83 | 132 | 13.0 | 22.0 | 0.00 | 0.00 | 0.00 | 52 | 1005.8 |
| 20260902184009 | 81 | 136 | 11.0 | 23.0 | 0.00 | 0.00 | 0.00 | 54 | 1006.0 |
| 20260902183508 | 82 | 123 | 13.0 | 23.0 | 0.00 | 0.00 | 0.00 | 54 | 1006.0 |
| 20260902183008 | 82 | 138 | 15.0 | 27.0 | 0.00 | 0.00 | 0.00 | 53 | 1006.2 |
| 20260902182607 | 82 | 131 | 11.0 | 22.0 | 0.00 | 0.00 | 0.00 | 53 | 1006.1 |
| 20260902181535 | 82 | 136 | 14.0 | 23.0 | 0.00 | 0.00 | 0.00 | 54 | 1006.3 |
| 20260902181034 | 82 | 140 | 12.0 | 24.0 | 0.00 | 0.00 | 0.00 | 53 | 1006.3 |
| 20260902180534 | 82 | 219 | 12.0 | 24.0 | 0.00 | 0.00 | 0.00 | 54 | 1006.4 |
| 20260902180033 | 81 | 137 | 13.0 | 21.0 | 0.00 | 0.00 | 0.00 | 54 | 1006.5 |
| 20260902175532 | 81 | 103 | 14.0 | 25.0 | 0.00 | 0.00 | 0.00 | 55 | 1006.7 |
| 20260902175034 | 81 | 134 | 16.0 | 25.0 | 0.00 | 0.00 | 0.00 | 55 | 1006.6 |
| 20260902174531 | 81 | 132 | 16.0 | 23.0 | 0.00 | 0.00 | 0.00 | 55 | 1006.6 |
| 20260902174031 | 81 | 134 | 14.0 | 22.0 | 0.00 | 0.00 | 0.00 | 55 | 1006.8 |
| 20260902173530 | 81 | 135 | 13.0 | 19.0 | 0.00 | 0.00 | 0.00 | 57 | 1006.9 |
| 20260902173029 | 80 | 152 | 9.0 | 22.0 | 0.00 | 0.00 | 0.00 | 57 | 1006.9 |
| 20260902172527 | 80 | 140 | 12.0 | 22.0 | 0.00 | 0.00 | 0.00 | 58 | 1006.9 |
| 20260902171531 | 79 | 128 | 13.0 | 22.0 | 0.00 | 0.00 | 0.00 | 59 | 1007.2 |
| 20260902171030 | 79 | 154 | 12.0 | 21.0 | 0.00 | 0.00 | 0.00 | 60 | 1007.0 |
| 20260902170533 | 79 | 130 | 14.0 | 21.0 | 0.00 | 0.00 | 0.00 | 60 | 1007.2 |
| 20260902170029 | 78 | 136 | 13.0 | 20.0 | 0.00 | 0.00 | 0.00 | 61 | 1007.3 |
| 20260902165528 | 78 | 119 | 11.0 | 20.0 | 0.00 | 0.00 | 0.00 | 60 | 1007.5 |
| 20260902165027 | 78 | 144 | 13.0 | 21.0 | 0.00 | 0.00 | 0.00 | 60 | 1007.3 |
| 20260902164527 | 78 | 137 | 15.0 | 21.0 | 0.00 | 0.00 | 0.00 | 60 | 1007.3 |
| 20260902164026 | 78 | 123 | 9.0 | 17.0 | 0.00 | 0.00 | 0.00 | 61 | 1007.3 |
| 20260902163526 | 78 | 130 | 11.0 | 17.0 | 0.00 | 0.00 | 0.00 | 61 | 1007.3 |
| 20260902163025 | 77 | 169 | 8.0 | 17.0 | 0.00 | 0.00 | 0.00 | 62 | 1007.5 |
| 20260902162624 | 76 | 140 | 11.0 | 17.0 | 0.00 | 0.00 | 0.00 | 63 | 1007.5 |
| 20260902161519 | 75 | 138 | 10.0 | 18.0 | 0.00 | 0.00 | 0.00 | 67 | 1007.6 |
| 20260902161018 | 74 | 121 | 12.0 | 18.0 | 0.00 | 0.00 | 0.00 | 67 | 1007.7 |
| 20260902160516 | 74 | 141 | 10.0 | 15.0 | 0.00 | 0.00 | 0.00 | 68 | 1007.8 |
| 20260902160017 | 73 | 142 | 9.0 | 15.0 | 0.00 | 0.00 | 0.00 | 68 | 1007.7 |
| 20260902155515 | 73 | 136 | 9.0 | 14.0 | 0.00 | 0.00 | 0.00 | 68 | 1007.9 |
| 20260902155014 | 73 | 140 | 7.0 | 14.0 | 0.00 | 0.00 | 0.00 | 70 | 1007.8 |
| 20260902154512 | 72 | 175 | 6.0 | 14.0 | 0.00 | 0.00 | 0.00 | 71 | 1008.0 |
| 20260902154011 | 72 | 141 | 8.0 | 13.0 | 0.00 | 0.00 | 0.00 | 72 | 1008.2 |
| 20260902153510 | 71 | 141 | 7.0 | 15.0 | 0.00 | 0.00 | 0.00 | 73 | 1008.3 |
| 20260902153009 | 70 | 159 | 6.0 | 13.0 | 0.00 | 0.00 | 0.00 | 73 | 1008.5 |
| 20260902152508 | 69 | 207 | 5.0 | 14.0 | 0.00 | 0.00 | 0.00 | 73 | 1008.3 |
| 20260902151507 | 69 | 120 | 8.0 | 15.0 | 0.00 | 0.00 | 0.00 | 72 | 1008.5 |
| 20260902151009 | 69 | 146 | 10.0 | 15.0 | 0.00 | 0.00 | 0.00 | 71 | 1008.5 |
| 20260902150507 | 68 | 142 | 10.0 | 15.0 | 0.00 | 0.00 | 0.00 | 70 | 1008.6 |
| 20260902150006 | 68 | 144 | 10.0 | 14.0 | 0.00 | 0.00 | 0.00 | 67 | 1008.8 |
| 20260902145502 | 68 | 116 | 9.0 | 13.0 | 0.00 | 0.00 | 0.00 | 68 | 1008.6 |
| 20260902145100 | 67 | 144 | 10.0 | 14.0 | 0.00 | 0.00 | 0.00 | 67 | 1008.8 |
| 20260902144559 | 67 | 139 | 9.0 | 13.0 | 0.00 | 0.00 | 0.00 | 68 | 1008.8 |
| 20260902144058 | 66 | 163 | 7.0 | 11.0 | 0.00 | 0.00 | 0.00 | 67 | 1008.8 |
| 20260902143557 | 66 | 142 | 7.0 | 11.0 | 0.00 | 0.00 | 0.00 | 67 | 1008.8 |
| 20260902143056 | 65 | 126 | 6.0 | 11.0 | 0.00 | 0.00 | 0.00 | 67 | 1008.7 |
| 20260902142555 | 65 | 119 | 7.0 | 11.0 | 0.00 | 0.00 | 0.00 | 67 | 1008.8 |
| 20260902141559 | 65 | 143 | 5.0 | 10.0 | 0.00 | 0.00 | 0.00 | 68 | 1008.8 |
| 20260902141055 | 64 | 144 | 3.0 | 8.0 | 0.00 | 0.00 | 0.00 | 68 | 1008.9 |
| 20260902140553 | 64 | 174 | 5.0 | 9.0 | 0.00 | 0.00 | 0.00 | 68 | 1009.0 |
| 20260902140052 | 63 | 153 | 4.0 | 10.0 | 0.00 | 0.00 | 0.00 | 68 | 1008.9 |
| 20260902135551 | 63 | 161 | 4.0 | 10.0 | 0.00 | 0.00 | 0.00 | 69 | 1009.0 |
| 20260902135052 | 62 | 156 | 0.0 | 5.0 | 0.00 | 0.00 | 0.00 | 71 | 1009.0 |
| 20260902134551 | 61 | 156 | 0.0 | 3.0 | 0.00 | 0.00 | 0.00 | 71 | 1008.9 |
| 20260902134051 | 61 | 156 | 1.0 | 3.0 | 0.00 | 0.00 | 0.00 | 73 | 1009.1 |
| 20260902133551 | 60 | 156 | 1.0 | 3.0 | 0.00 | 0.00 | 0.00 | 74 | 1009.2 |
| 20260902133052 | 59 | 156 | 0.0 | 5.0 | 0.00 | 0.00 | 0.00 | 75 | 1009.2 |
| 20260902132553 | 58 | 156 | 0.0 | 5.0 | 0.00 | 0.00 | 0.00 | 77 | 1009.2 |
| 20260902131547 | 56 | 157 | 0.0 | 2.0 | 0.00 | 0.00 | 0.00 | 81 | 1009.1 |
| 20260902131047 | 55 | 147 | 0.0 | 2.0 | 0.00 | 0.00 | 0.00 | 81 | 1009.2 |
| 20260902130546 | 54 | 147 | 1.0 | 2.0 | 0.00 | 0.00 | 0.00 | 82 | 1009.3 |
| 20260902130046 | 54 | 147 | 1.0 | 2.0 | 0.00 | 0.00 | 0.00 | 83 | 1009.2 |
| 20260902125550 | 53 | 147 | 0.0 | 1.0 | 0.00 | 0.00 | 0.00 | 81 | 1009.3 |
| 20260902125047 | 53 | 147 | 0.0 | 0.0 | 0.00 | 0.00 | 0.00 | 82 | 1009.1 |
| 20260902124557 | 53 | 147 | 0.0 | 0.0 | 0.00 | 0.00 | 0.00 | 81 | 1009.1 |
| 20260902124050 | 53 | 147 | 0.0 | 0.0 | 0.00 | 0.00 | 0.00 | 80 | 1009.1 |
| 20260902123546 | 54 | 147 | 0.0 | 0.0 | 0.00 | 0.00 | 0.00 | 80 | 1009.0 |
| 20260902123047 | 54 | 147 | 0.0 | 0.0 | 0.00 | 0.00 | 0.00 | 80 | 1009.1 |
| 20260902122546 | 54 | 147 | 0.0 | 0.0 | 0.00 | 0.00 | 0.00 | 79 | 1009.0 |
| 20260902121549 | 55 | 147 | 0.0 | 2.0 | 0.00 | 0.00 | 0.00 | 77 | 1009.1 |
| 20260902121048 | 56 | 147 | 0.0 | 3.0 | 0.00 | 0.00 | 0.00 | 77 | 1008.9 |
| 20260902120548 | 56 | 147 | 1.0 | 12.0 | 0.00 | 0.00 | 0.00 | 78 | 1008.9 |
| 20260902120047 | 55 | 148 | 5.0 | 12.0 | 0.00 | 0.00 | 0.00 | 83 | 1009.0 |
| 20260902115547 | 54 | 118 | 0.0 | 4.0 | 0.00 | 0.00 | 0.00 | 81 | 1009.0 |
| 20260902115047 | 54 | 130 | 0.0 | 3.0 | 0.00 | 0.00 | 0.00 | 81 | 1009.1 |
| 20260902114548 | 54 | 130 | 0.0 | 3.0 | 0.00 | 0.00 | 0.00 | 82 | 1009.1 |
| 20260902114049 | 53 | 130 | 0.0 | 2.0 | 0.00 | 0.00 | 0.00 | 82 | 1009.0 |
| 20260902113547 | 53 | 130 | 0.0 | 2.0 | 0.00 | 0.00 | 0.00 | 82 | 1009.0 |
| 20260902113102 | 53 | 130 | 0.0 | 2.0 | 0.00 | 0.00 | 0.00 | 80 | 1009.1 |
| 20260902112548 | 54 | 130 | 0.0 | 1.0 | 0.00 | 0.00 | 0.00 | 79 | 1009.0 |
| 20260902111551 | 55 | 130 | 0.0 | 3.0 | 0.00 | 0.00 | 0.00 | 77 | 1009.0 |
| 20260902111042 | 56 | 132 | 0.0 | 3.0 | 0.00 | 0.00 | 0.00 | 77 | 1008.9 |
| 20260902110542 | 56 | 132 | 0.0 | 0.0 | 0.00 | 0.00 | 0.00 | 78 | 1009.0 |
| 20260902110042 | 56 | 132 | 0.0 | 0.0 | 0.00 | 0.00 | 0.00 | 78 | 1009.0 |
| 20260902105545 | 56 | 132 | 0.0 | 0.0 | 0.00 | 0.00 | 0.00 | 78 | 1009.0 |
| 20260902105042 | 56 | 132 | 0.0 | 0.0 | 0.00 | 0.00 | 0.00 | 78 | 1009.1 |
| 20260902104544 | 56 | 132 | 0.0 | 0.0 | 0.00 | 0.00 | 0.00 | 78 | 1009.2 |
| 20260902104041 | 56 | 132 | 0.0 | 0.0 | 0.00 | 0.00 | 0.00 | 76 | 1008.9 |
| 20260902103542 | 57 | 132 | 0.0 | 0.0 | 0.00 | 0.00 | 0.00 | 76 | 1008.9 |
| 20260902103042 | 57 | 132 | 0.0 | 1.0 | 0.00 | 0.00 | 0.00 | 76 | 1008.9 |
| 20260902102540 | 57 | 132 | 0.0 | 3.0 | 0.00 | 0.00 | 0.00 | 75 | 1009.0 |
| 20260902101541 | 58 | 132 | 3.0 | 7.0 | 0.00 | 0.00 | 0.00 | 75 | 1009.2 |
| 20260902101035 | 58 | 134 | 4.0 | 9.0 | 0.00 | 0.00 | 0.00 | 76 | 1009.4 |
| 20260902100535 | 57 | 139 | 3.0 | 8.0 | 0.00 | 0.00 | 0.00 | 77 | 1009.4 |
| 20260902100035 | 57 | 150 | 3.0 | 6.0 | 0.00 | 0.00 | 0.00 | 78 | 1009.3 |
| 20260902095535 | 56 | 181 | 2.0 | 4.0 | 0.00 | 0.00 | 0.00 | 78 | 1009.4 |
| 20260902095034 | 56 | 182 | 0.0 | 0.0 | 0.00 | 0.00 | 0.00 | 78 | 1009.4 |
| 20260902094540 | 56 | 182 | 0.0 | 0.0 | 0.00 | 0.00 | 0.00 | 78 | 1009.6 |
| 20260902094033 | 56 | 182 | 0.0 | 0.0 | 0.00 | 0.00 | 0.00 | 77 | 1009.7 |
| 20260902093533 | 56 | 182 | 0.0 | 0.0 | 0.00 | 0.00 | 0.00 | 76 | 1009.8 |
| 20260902093032 | 56 | 182 | 0.0 | 0.0 | 0.00 | 0.00 | 0.00 | 76 | 1009.6 |
| 20260902092533 | 57 | 182 | 0.0 | 0.0 | 0.00 | 0.00 | 0.00 | 76 | 1009.7 |
| 20260902091541 | 58 | 182 | 0.0 | 0.0 | 0.00 | 0.00 | 0.00 | 73 | 1009.6 |
| 20260902091031 | 58 | 182 | 0.0 | 0.0 | 0.00 | 0.00 | 0.00 | 74 | 1009.5 |
| 20260902090527 | 58 | 182 | 0.0 | 2.0 | 0.00 | 0.00 | 0.00 | 73 | 1009.5 |
| 20260902090026 | 59 | 182 | 0.0 | 3.0 | 0.00 | 0.00 | 0.00 | 72 | 1009.4 |
| 20260902085525 | 59 | 182 | 0.0 | 3.0 | 0.00 | 0.00 | 0.00 | 71 | 1009.4 |
| 20260902085025 | 60 | 182 | 0.0 | 3.0 | 0.00 | 0.00 | 0.00 | 71 | 1009.6 |
| 20260902084524 | 60 | 182 | 1.0 | 3.0 | 0.00 | 0.00 | 0.00 | 71 | 1009.8 |
| 20260902084024 | 60 | 182 | 1.0 | 6.0 | 0.00 | 0.00 | 0.00 | 71 | 1009.6 |
| 20260902083524 | 60 | 183 | 3.0 | 8.0 | 0.00 | 0.00 | 0.00 | 71 | 1009.6 |
| 20260902083022 | 60 | 180 | 3.0 | 8.0 | 0.00 | 0.00 | 0.00 | 72 | 1009.8 |
| 20260902082522 | 60 | 160 | 1.0 | 5.0 | 0.00 | 0.00 | 0.00 | 71 | 1009.7 |
| 20260902081523 | 60 | 165 | 0.0 | 0.0 | 0.00 | 0.00 | 0.00 | 72 | 1009.8 |
| 20260902081022 | 60 | 165 | 0.0 | 3.0 | 0.00 | 0.00 | 0.00 | 72 | 1009.6 |
| 20260902080522 | 59 | 165 | 0.0 | 5.0 | 0.00 | 0.00 | 0.00 | 73 | 1009.8 |
| 20260902080021 | 59 | 165 | 3.0 | 4.0 | 0.00 | 0.00 | 0.00 | 72 | 1009.7 |
| 20260902075523 | 59 | 175 | 0.0 | 0.0 | 0.00 | 0.00 | 0.00 | 73 | 1009.8 |
| 20260902075019 | 59 | 175 | 0.0 | 2.0 | 0.00 | 0.00 | 0.00 | 72 | 1010.0 |
| 20260902074519 | 59 | 175 | 0.0 | 4.0 | 0.00 | 0.00 | 0.00 | 72 | 1009.9 |
| 20260902074019 | 59 | 175 | 1.0 | 4.0 | 0.00 | 0.00 | 0.00 | 71 | 1009.8 |
| 20260902073520 | 60 | 175 | 2.0 | 4.0 | 0.00 | 0.00 | 0.00 | 70 | 1009.9 |
| 20260902073019 | 60 | 175 | 2.0 | 4.0 | 0.00 | 0.00 | 0.00 | 70 | 1009.9 |
| 20260902072515 | 60 | 175 | 0.0 | 4.0 | 0.00 | 0.00 | 0.00 | 70 | 1010.0 |
| 20260902071524 | 61 | 178 | 0.0 | 3.0 | 0.00 | 0.00 | 0.00 | 67 | 1009.9 |
| 20260902071014 | 61 | 178 | 1.0 | 3.0 | 0.00 | 0.00 | 0.00 | 67 | 1009.8 |
| 20260902070511 | 62 | 178 | 0.0 | 4.0 | 0.00 | 0.00 | 0.00 | 66 | 1010.1 |
| 20260902070016 | 62 | 178 | 0.0 | 4.0 | 0.00 | 0.00 | 0.00 | 66 | 1010.0 |
| 20260902065510 | 62 | 180 | 1.0 | 3.0 | 0.00 | 0.00 | 0.00 | 66 | 1010.1 |
| 20260902065011 | 62 | 180 | 1.0 | 4.0 | 0.00 | 0.00 | 0.00 | 65 | 1010.1 |
| 20260902064508 | 63 | 180 | 1.0 | 4.0 | 0.00 | 0.00 | 0.00 | 65 | 1010.1 |
| 20260902064007 | 63 | 180 | 1.0 | 5.0 | 0.00 | 0.00 | 0.00 | 64 | 1010.2 |
| 20260902063506 | 63 | 180 | 2.0 | 5.0 | 0.00 | 0.00 | 0.00 | 64 | 1010.3 |
| 20260902063009 | 63 | 139 | 0.0 | 2.0 | 0.00 | 0.00 | 0.00 | 63 | 1010.1 |
| 20260902062508 | 64 | 139 | 1.0 | 3.0 | 0.00 | 0.00 | 0.00 | 63 | 1009.9 |
| 20260902061506 | 64 | 132 | 2.0 | 4.0 | 0.00 | 0.00 | 0.00 | 62 | 1010.0 |
| 20260902061007 | 64 | 132 | 0.0 | 3.0 | 0.00 | 0.00 | 0.00 | 62 | 1010.1 |
| 20260902060507 | 64 | 132 | 0.0 | 0.0 | 0.00 | 0.00 | 0.00 | 62 | 1010.2 |
| 20260902060014 | 65 | 132 | 0.0 | 0.0 | 0.00 | 0.00 | 0.00 | 62 | 1010.2 |
| 20260902055509 | 65 | 132 | 0.0 | 0.0 | 0.00 | 0.00 | 0.00 | 61 | 1010.2 |
| 20260902055006 | 65 | 132 | 0.0 | 0.0 | 0.00 | 0.00 | 0.00 | 61 | 1010.2 |
| 20260902054511 | 66 | 132 | 0.0 | 0.0 | 0.00 | 0.00 | 0.00 | 61 | 1010.2 |
| 20260902054006 | 66 | 132 | 0.0 | 1.0 | 0.00 | 0.00 | 0.00 | 60 | 1010.1 |
| 20260902053505 | 66 | 132 | 0.0 | 2.0 | 0.00 | 0.00 | 0.00 | 60 | 1010.2 |
| 20260902053010 | 67 | 132 | 0.0 | 2.0 | 0.00 | 0.00 | 0.00 | 59 | 1010.2 |
| 20260902052505 | 67 | 132 | 1.0 | 4.0 | 0.00 | 0.00 | 0.00 | 59 | 1010.0 |
| 20260902051505 | 68 | 134 | 2.0 | 7.0 | 0.00 | 0.00 | 0.00 | 58 | 1010.2 |
| 20260902051005 | 68 | 124 | 1.0 | 7.0 | 0.00 | 0.00 | 0.00 | 58 | 1010.1 |
| 20260902050508 | 68 | 125 | 4.0 | 7.0 | 0.00 | 0.00 | 0.00 | 59 | 1010.1 |
| 20260902050009 | 67 | 123 | 4.0 | 7.0 | 0.00 | 0.00 | 0.00 | 59 | 1010.1 |
| 20260902045505 | 68 | 133 | 1.0 | 4.0 | 0.00 | 0.00 | 0.00 | 58 | 1010.0 |
| 20260902045004 | 69 | 134 | 1.0 | 4.0 | 0.00 | 0.00 | 0.00 | 57 | 1010.2 |
| 20260902044506 | 69 | 132 | 2.0 | 5.0 | 0.00 | 0.00 | 0.00 | 56 | 1010.1 |